This is the latest recevied weather packets stored in our database for station/object K4PAD. If no packets are shown the sender has not sent any weather packets the latest 10 day(s).
| Time | Temp. | Humidity | Pressure | Rain* | Wind** | Luminosity | Snow |
|---|---|---|---|---|---|---|---|
| 1778067015 | 16.67° C | 92% | 1017.7 hPa | 0 mm | - | 59 W/m² | - |
| 1778066711 | 16.11° C | 92% | 1017.6 hPa | 0 mm | - | 51 W/m² | - |
| 1778066409 | 16.11° C | 92% | 1017.9 hPa | 0 mm | - | 42 W/m² | - |
| 1778066107 | 16.11° C | 92% | 1017.7 hPa | 0 mm | - | 33 W/m² | - |
| 1778065803 | 15.56° C | 92% | 1017.8 hPa | 0 mm | - | 25 W/m² | - |
| 1778065502 | 15.56° C | 92% | 1017.9 hPa | 0 mm | - | 21 W/m² | - |
| 1778065197 | 15.56° C | 92% | 1017.4 hPa | 0 mm | - | 16 W/m² | - |
| 1778064893 | 15.56° C | 92% | 1017.5 hPa | 0 mm | - | 10 W/m² | - |
| 1778064591 | 15.56° C | 92% | 1017.4 hPa | 0 mm | - | 7 W/m² | - |
| 1778064289 | 15.56° C | 92% | 1017.4 hPa | 0 mm | - | 4 W/m² | - |
| 1778063987 | 16.11° C | 92% | 1017.1 hPa | 0 mm | - | 2 W/m² | - |
| 1778063684 | 15.56° C | 92% | 1017.2 hPa | 0 mm | - | 1 W/m² | - |
| 1778063381 | 15.56° C | 91% | 1017.4 hPa | 0 mm | - | 0 W/m² | - |
| 1778063079 | 15.56° C | 91% | 1017.1 hPa | 0 mm | - | 0 W/m² | - |
| 1778062776 | 16.11° C | 91% | 1017.2 hPa | 0 mm | - | 0 W/m² | - |
| 1778062473 | 16.11° C | 90% | 1016.9 hPa | 0 mm | - | 0 W/m² | - |
| 1778062170 | 16.11° C | 90% | 1017 hPa | 0 mm | - | 0 W/m² | - |
| 1778061868 | 16.11° C | 90% | 1017.4 hPa | 0 mm | - | 0 W/m² | - |
| 1778061566 | 16.11° C | 90% | 1017.3 hPa | 0 mm | - | 0 W/m² | - |
| 1778061264 | 16.11° C | 90% | 1017.3 hPa | 0 mm | - | 0 W/m² | - |
| 1778060960 | 16.11° C | 90% | 1017.4 hPa | 0 mm | - | 0 W/m² | - |
| 1778060659 | 16.11° C | 90% | 1017.3 hPa | 0 mm | - | 0 W/m² | - |
| 1778060356 | 16.11° C | 90% | 1017.4 hPa | 0 mm | - | 0 W/m² | - |
| 1778060054 | 16.11° C | 90% | 1017.4 hPa | 0 mm | - | 0 W/m² | - |
| 1778059751 | 16.11° C | 89% | 1017.3 hPa | 0 mm | - | 0 W/m² | - |
* Rain latest hour (hover to see other rain measurements)
** Current wind speed in m/s (hover to see current wind gust speed)